Wind_Speed
28 27 27 27 26 25 25 25 25 25 25 25 25 26 26 28 29 29 30 31 32 33 34 33 33 32 31 31 31 31 32 32 32 33 33 33 33 33 33 32 31 30 29
29 28 28 28 28 27 27 26 27 27 26 26 27 27 28 30 31 32 33 34 35 35 35 34 33 32 31 30 30 30 30 31 31 31 32 33 34 35 36 36 36 35 34
29 29 29 29 29 28 28 28 28 28 29 29 29 30 31 32 33 34 35 36 36 36 35 34 34 33 32 32 31 31 31 32 32 33 34 36 37 38 39 39 40 40 40
30 30 30 30 30 29 29 30 30 30 31 32 33 33 34 34 35 35 37 38 38 38 36 35 34 34 34 35 36 36 36 37 38 39 40 41 42 43 43 44 44 45 45
32 31 31 32 31 31 31 31 31 32 33 33 34 34 34 35 35 36 37 38 38 37 36 35 34 34 35 36 38 39 41 42 43 44 45 46 46 47 47 48 48 48 48
33 33 34 33 32 32 32 32 32 33 33 33 33 33 33 34 35 36 37 37 37 36 36 35 35 35 36 37 38 40 42 43 44 45 46 47 47 47 48 49 50 50 50
35 35 36 35 34 34 33 34 34 33 33 33 33 32 33 33 34 35 36 36 36 35 35 35 36 36 37 38 39 41 42 43 44 45 46 46 47 47 48 49 50 51 52
38 38 38 37 36 36 35 35 35 34 34 34 34 34 34 34 35 35 36 36 35 35 36 36 37 37 38 39 40 41 42 43 44 45 45 46 47 48 49 50 52 53 54
42 42 41 41 40 39 38 37 37 37 37 36 36 35 35 36 36 37 37 37 37 37 38 38 39 40 40 41 41 42 43 44 45 46 47 47 48 49 50 52 53 54 56
45 45 44 44 43 41 40 40 40 39 39 39 38 38 38 38 38 38 39 39 39 40 40 41 42 42 43 43 44 45 45 46 47 48 49 49 50 51 53 54 55 57 58
47 46 47 47 47 45 44 43 43 42 42 41 40 40 41 41 41 41 40 41 42 42 43 44 45 45 46 46 47 47 48 49 49 50 51 52 53 54 55 56 58 59 60
49 48 48 48 48 48 47 47 46 45 44 43 42 43 43 43 43 43 43 44 44 45 46 47 49 49 48 49 50 51 52 53 53 53 54 55 56 57 58 59 60 62 63
52 50 50 50 50 50 49 49 48 47 46 45 44 44 44 45 45 45 46 46 46 47 49 50 52 52 52 52 54 55 56 56 57 58 58 59 60 61 62 62 64 65 66
55 53 52 52 51 51 50 50 49 49 47 46 46 46 46 46 46 46 47 48 48 49 50 52 53 54 54 56 58 59 59 60 61 62 63 63 64 65 65 66 68 69 71
59 57 56 54 52 52 51 51 50 49 48 48 47 47 47 47 47 48 48 49 50 51 52 53 55 56 58 60 61 62 62 63 64 64 65 66 67 68 69 71 72 74 75
63 61 58 56 54 53 53 52 51 50 49 49 49 49 49 49 49 49 50 51 52 53 54 55 57 59 62 64 65 65 65 66 66 67 68 69 70 71 73 74 76 78 80
65 63 61 58 56 55 55 54 52 51 51 50 50 50 50 50 51 51 52 53 55 55 56 58 61 64 66 67 68 68 69 69 69 70 71 72 73 75 77 78 80 81 83
67 64 62 59 57 56 55 54 53 52 51 51 51 51 51 51 52 54 56 56 57 58 60 63 65 68 69 70 70 70 71 71 72 73 74 76 77 79 81 82 83 84 85
66 65 62 60 58 56 55 54 53 52 51 50 50 51 52 53 55 57 58 61 62 63 65 67 69 70 71 72 72 72 72 73 74 76 78 79 81 83 84 85 85 85 84
61 61 60 58 56 54 54 52 51 50 50 49 50 51 53 55 57 59 61 65 67 68 69 70 70 71 72 73 73 73 73 75 76 79 81 82 84 84 85 84 82 81 79
53 54 54 53 53 51 50 49 49 48 48 48 50 52 55 57 59 62 66 68 69 70 71 71 72 72 73 74 75 76 76 77 78 81 81 82 82 81 80 79 77 76 74
41 44 46 47 47 47 46 46 46 46 46 48 51 54 57 59 62 64 67 69 70 70 71 72 72 73 74 76 77 78 79 79 78 79 78 76 76 74 73 71 70 69 68
31 35 38 39 40 41 42 41 42 43 45 49 53 56 59 60 62 65 67 68 69 71 72 74 75 76 78 79 80 80 80 78 75 74 72 68 68 66 63 62 62 63 62
24 27 30 33 34 35 36 38 40 42 46 50 53 56 57 59 61 64 65 67 69 72 74 77 79 81 82 83 82 79 75 71 68 66 65 60 58 57 56 56 58 59 58
20 22 24 27 29 31 34 36 39 42 45 47 48 51 54 57 60 63 65 68 71 75 78 81 83 84 83 81 76 71 66 63 58 55 57 55 52 50 49 49 51 52 53
15 18 21 23 26 28 31 32 35 38 41 44 48 51 54 57 61 65 69 73 76 79 81 83 83 81 76 70 65 61 56 53 50 48 50 48 45 45 41 38 41 44 46
Wind_Direction
274 272 271 271 271 271 271 272 274 277 279 282 284 285 285 286 287 289 290 291 293 293 293 292 291 289 286 283 281 280 278 278 277 277 276 274 271 269 268 268 269 272 274
271 270 268 268 269 270 271 272 274 276 279 281 283 284 286 288 289 290 291 293 294 295 294 292 290 287 284 282 280 279 278 278 278 279 278 278 276 273 271 270 270 271 271
270 269 267 267 268 269 271 272 274 277 279 282 284 286 286 287 289 290 291 293 294 294 293 291 288 284 281 279 277 277 277 278 278 279 279 279 279 278 276 274 273 273 272
269 268 267 267 268 269 270 272 274 277 280 283 285 286 286 286 288 289 291 293 294 294 292 290 287 284 281 278 276 275 276 277 278 278 279 279 279 279 278 276 275 275 274
268 269 268 267 267 268 269 271 275 278 281 283 285 287 287 286 288 289 292 294 295 295 294 292 290 287 285 282 280 279 278 278 279 279 280 280 280 279 278 276 275 274 273
265 268 268 267 267 267 269 271 274 278 281 283 285 287 287 287 289 291 293 295 297 297 296 295 293 291 289 286 285 283 282 282 281 281 280 280 280 279 278 276 275 274 273
263 266 268 268 267 267 269 271 273 276 279 282 284 286 287 289 290 292 294 296 298 299 298 298 297 295 293 291 289 287 286 285 284 283 283 282 280 279 278 277 276 275 274
261 263 265 265 266 267 269 270 271 274 277 280 283 284 286 288 290 292 294 296 297 299 300 300 299 298 296 295 293 292 291 289 288 287 285 284 282 280 279 278 277 276 275
258 259 261 262 264 265 267 269 270 273 275 278 281 283 285 287 288 291 293 294 296 298 299 300 299 299 297 296 295 294 293 292 291 289 287 286 284 282 281 279 278 277 276
255 258 259 261 263 265 266 268 270 273 275 277 279 281 284 285 287 288 291 293 295 297 298 299 298 298 297 296 295 295 295 294 293 291 289 288 286 285 283 282 280 279 278
256 258 260 261 262 264 266 267 270 272 274 276 279 281 282 284 285 287 288 291 293 295 297 298 297 297 297 296 297 297 297 296 295 293 291 289 288 286 285 284 282 281 280
255 256 258 260 262 263 265 267 269 272 274 276 278 280 281 282 284 286 288 290 292 294 296 296 296 296 297 298 299 299 299 298 297 295 293 292 290 289 287 286 284 283 281
253 254 255 257 259 262 264 266 269 271 273 275 277 279 280 281 283 285 287 289 292 293 295 295 295 296 297 299 300 300 300 298 297 296 294 293 291 290 288 287 285 284 283
253 252 253 254 257 260 263 265 268 270 272 274 277 279 280 281 282 284 286 288 290 292 293 293 294 295 297 298 299 299 298 297 296 295 294 293 292 290 289 288 286 285 284
251 252 252 253 254 257 260 263 267 269 272 274 276 279 280 280 281 284 285 286 288 290 290 291 293 295 296 297 298 297 297 296 295 294 293 292 291 290 289 288 287 286 284
250 250 251 252 253 255 258 261 265 268 270 273 276 278 280 280 282 283 284 285 286 289 289 290 292 294 295 296 297 297 296 296 295 294 292 292 291 290 290 289 288 287 286
248 249 249 250 251 253 255 259 263 266 269 272 275 277 279 280 282 283 285 285 287 288 289 291 293 294 295 296 296 296 296 296 295 294 294 293 292 292 291 291 290 289 289
246 246 247 248 249 251 254 257 261 264 268 271 274 277 278 280 281 283 284 285 287 289 290 292 293 295 295 295 296 296 296 296 296 295 295 294 294 294 293 293 292 292 291
245 245 245 246 247 249 252 256 259 263 268 271 274 276 278 278 279 282 285 287 287 289 291 292 294 295 295 295 296 296 297 297 296 296 296 296 296 296 295 295 294 293 292
245 244 245 246 246 248 251 255 259 263 268 271 274 276 276 276 278 282 284 285 288 289 291 293 294 295 295 295 295 296 297 297 297 297 297 297 297 297 296 296 295 294 292
244 244 244 245 245 247 251 255 259 263 268 271 273 274 275 276 280 282 283 286 288 290 292 293 294 295 295 295 296 296 296 297 297 297 298 298 298 298 298 298 297 295 293
242 242 242 243 244 247 251 255 259 263 267 270 272 274 276 279 282 284 286 288 290 292 293 294 295 295 295 295 296 296 296 297 297 297 298 298 298 299 299 298 297 295 295
234 236 237 239 242 246 251 255 260 264 268 271 274 276 279 282 284 287 289 292 294 295 295 295 295 295 295 295 296 296 297 298 299 298 298 299 299 300 300 299 298 297 297
225 230 234 238 242 247 252 257 262 267 270 274 278 280 282 286 289 291 293 295 296 296 296 296 296 295 295 296 296 297 298 298 299 299 299 300 300 301 301 300 299 298 298
220 227 233 238 244 250 257 263 267 270 275 281 284 287 290 293 295 296 297 297 297 296 296 296 296 296 296 296 297 297 298 299 299 298 299 302 302 302 303 303 301 300 300
222 230 236 245 251 257 266 272 276 280 284 289 293 296 298 299 299 299 299 299 298 297 297 296 296 296 297 297 298 299 299 300 300 299 299 303 305 305 305 304 301 301 302
Height
5823 5823 5823 5823 5824 5824 5824 5824 5823 5823 5823 5822 5821 5821 5820 5819 5818 5817 5816 5814 5813 5811 5810 5808 5806 5805 5804 5803 5802 5801 5801 5800 5800 5800 5800 5799 5799 5799 5799 5799 5799 5799 5799
5817 5817 5817 5817 5817 5818 5818 5818 5817 5817 5817 5817 5816 5815 5814 5813 5812 5811 5810 5808 5807 5805 5803 5801 5799 5798 5797 5796 5795 5794 5793 5793 5792 5792 5792 5792 5791 5791 5791 5791 5791 5791 5791
5810 5810 5810 5810 5811 5811 5812 5811 5811 5811 5811 5811 5810 5809 5808 5807 5806 5804 5803 5801 5799 5798 5796 5794 5792 5791 5789 5789 5788 5787 5786 5785 5785 5784 5784 5784 5784 5783 5783 5783 5783 5782 5782
5804 5803 5803 5803 5804 5805 5805 5805 5805 5805 5805 5804 5803 5802 5801 5800 5798 5797 5795 5794 5792 5790 5788 5786 5785 5783 5782 5781 5780 5779 5779 5778 5777 5776 5775 5775 5774 5774 5773 5773 5773 5772 5772
5797 5797 5797 5797 5797 5797 5798 5798 5798 5798 5797 5797 5796 5795 5794 5792 5791 5790 5788 5786 5784 5782 5781 5779 5777 5775 5774 5773 5771 5771 5770 5769 5767 5766 5765 5764 5763 5763 5762 5761 5761 5761 5761
5789 5790 5790 5790 5790 5790 5790 5790 5790 5790 5790 5790 5789 5788 5787 5785 5784 5782 5781 5779 5777 5775 5773 5771 5769 5767 5766 5764 5763 5761 5759 5758 5757 5755 5754 5752 5751 5750 5749 5748 5748 5747 5748
5782 5782 5782 5783 5783 5783 5783 5783 5783 5783 5783 5782 5782 5780 5779 5778 5777 5775 5773 5771 5769 5767 5765 5763 5761 5759 5757 5755 5753 5751 5749 5747 5745 5743 5742 5740 5739 5737 5736 5735 5734 5734 5734
5774 5774 5774 5775 5775 5775 5775 5776 5776 5776 5775 5775 5774 5773 5772 5771 5769 5767 5766 5764 5761 5759 5757 5755 5753 5751 5748 5746 5743 5741 5738 5736 5733 5732 5730 5728 5727 5725 5723 5722 5721 5720 5719
5764 5764 5765 5766 5766 5767 5767 5768 5768 5768 5767 5767 5766 5766 5764 5763 5761 5759 5757 5755 5753 5751 5749 5747 5744 5742 5739 5736 5734 5731 5728 5725 5722 5720 5718 5716 5714 5712 5711 5709 5708 5706 5705
5754 5755 5756 5757 5758 5758 5759 5759 5759 5759 5759 5759 5758 5757 5756 5755 5753 5751 5749 5746 5744 5741 5739 5737 5734 5732 5729 5726 5723 5721 5718 5714 5711 5708 5705 5702 5700 5698 5696 5694 5693 5691 5690
5744 5745 5746 5747 5748 5749 5750 5750 5750 5750 5750 5750 5749 5748 5746 5745 5743 5742 5740 5737 5734 5731 5729 5726 5723 5720 5718 5715 5712 5709 5705 5702 5698 5695 5691 5688 5686 5683 5681 5678 5676 5674 5672
5732 5734 5736 5737 5738 5739 5740 5740 5740 5740 5740 5740 5740 5738 5737 5735 5733 5731 5729 5727 5724 5721 5717 5714 5711 5708 5705 5702 5698 5695 5691 5687 5684 5680 5676 5673 5670 5667 5664 5661 5658 5656 5654
5720 5722 5724 5726 5727 5728 5729 5730 5730 5730 5730 5730 5729 5728 5727 5725 5723 5721 5718 5716 5713 5709 5705 5701 5698 5695 5691 5688 5684 5681 5677 5673 5668 5664 5660 5657 5653 5650 5646 5643 5640 5637 5634
5707 5709 5711 5714 5716 5717 5718 5719 5719 5720 5720 5720 5719 5718 5716 5714 5712 5710 5707 5705 5701 5698 5693 5689 5685 5681 5678 5674 5670 5666 5662 5657 5652 5648 5643 5639 5635 5631 5628 5624 5621 5617 5614
5692 5695 5698 5701 5704 5706 5707 5708 5709 5709 5709 5709 5708 5707 5705 5703 5701 5699 5696 5693 5690 5686 5682 5678 5673 5669 5664 5660 5655 5651 5646 5641 5636 5631 5626 5621 5617 5612 5608 5604 5600 5596 5592
5676 5681 5685 5688 5691 5694 5695 5697 5698 5698 5698 5698 5697 5695 5694 5692 5690 5687 5684 5680 5676 5673 5669 5665 5660 5655 5649 5644 5639 5634 5629 5624 5618 5613 5607 5602 5597 5593 5588 5583 5578 5573 5568
5660 5666 5671 5675 5679 5681 5683 5685 5687 5687 5687 5687 5686 5684 5682 5680 5677 5674 5671 5667 5663 5659 5655 5651 5645 5639 5633 5627 5622 5616 5611 5605 5599 5592 5586 5581 5576 5570 5564 5559 5553 5547 5541
5644 5650 5656 5661 5665 5669 5671 5674 5675 5676 5676 5676 5674 5673 5670 5668 5665 5662 5658 5653 5649 5644 5640 5635 5629 5623 5616 5610 5604 5599 5593 5586 5579 5571 5565 5558 5552 5545 5539 5532 5526 5519 5512
5628 5635 5642 5648 5652 5656 5660 5663 5664 5665 5666 5665 5663 5661 5659 5656 5652 5648 5644 5639 5634 5629 5623 5618 5613 5606 5599 5592 5586 5580 5574 5566 5558 5550 5542 5535 5527 5520 5512 5504 5497 5489 5481
5614 5622 5629 5635 5641 5645 5649 5652 5654 5655 5655 5654 5652 5650 5647 5643 5638 5634 5630 5625 5619 5613 5606 5601 5595 5588 5582 5573 5567 5562 5556 5547 5538 5527 5519 5511 5502 5493 5484 5476 5469 5460 5452
5603 5611 5618 5625 5631 5635 5639 5642 5644 5645 5644 5643 5641 5638 5634 5629 5625 5620 5615 5609 5603 5596 5589 5583 5577 5570 5563 5555 5548 5542 5535 5528 5518 5505 5498 5487 5477 5469 5458 5449 5439 5431 5424
5595 5602 5609 5616 5622 5627 5630 5633 5634 5634 5633 5632 5629 5625 5621 5617 5612 5606 5600 5593 5586 5579 5571 5565 5559 5551 5543 5535 5528 5521 5513 5506 5499 5486 5477 5468 5454 5447 5437 5427 5416 5407 5400
5589 5596 5603 5609 5614 5619 5622 5623 5624 5624 5623 5621 5617 5613 5608 5603 5597 5591 5585 5577 5569 5560 5553 5546 5539 5530 5523 5515 5508 5500 5491 5482 5474 5462 5455 5451 5437 5429 5419 5408 5397 5389 5382
5586 5592 5599 5604 5608 5611 5614 5615 5615 5614 5613 5610 5605 5600 5595 5589 5583 5576 5569 5561 5552 5543 5534 5525 5517 5508 5500 5491 5484 5477 5469 5462 5454 5442 5431 5431 5423 5414 5405 5393 5381 5372 5365
5585 5591 5595 5600 5603 5605 5607 5606 5606 5604 5601 5598 5593 5588 5582 5575 5568 5561 5553 5545 5536 5525 5514 5503 5493 5484 5476 5467 5460 5455 5448 5442 5438 5428 5415 5413 5408 5400 5393 5381 5368 5358 5350
5586 5590 5593 5596 5598 5599 5599 5598 5597 5594 5591 5587 5581 5575 5568 5561 5553 5544 5535 5526 5516 5505 5494 5482 5470 5460 5452 5445 5439 5435 5430 5425 5419 5414 5404 5399 5393 5384 5381 5371 5359 5349 5340